Time,TemperatureF,DewpointF,PressureIn,WindDirection,WindDirectionDegrees,WindSpeedMPH,WindSpeedGustMPH,Humidity,HourlyPrecipIn,Conditions,Clouds,dailyrainin,SoftwareType,DateUTC
2013-04-07 00:15:00,56.0,32.6,30.04,NE,45,5.0,13.0,41,0.00,,,0.00,Weather View 32 v70,2013-04-07 04:15:00,
2013-04-07 00:30:00,55.0,32.3,30.04,SSE,157,2.0,13.0,42,0.00,,,0.00,Weather View 32 v70,2013-04-07 04:30:00,
2013-04-07 00:45:00,55.0,32.3,30.05,South,180,7.0,13.0,42,0.00,,,0.00,Weather View 32 v70,2013-04-07 04:45:00,
2013-04-07 01:00:00,55.0,32.9,30.05,WSW,247,3.0,13.0,43,0.00,,,0.00,Weather View 32 v70,2013-04-07 05:00:00,
2013-04-07 01:15:00,54.0,32.0,30.05,NNW,337,1.0,13.0,43,0.00,,,0.00,Weather View 32 v70,2013-04-07 05:15:00,
2013-04-07 01:30:00,54.0,32.0,30.05,NW,315,6.0,13.0,43,0.00,,,0.00,Weather View 32 v70,2013-04-07 05:30:00,
2013-04-07 01:45:00,54.0,32.0,30.05,WSW,247,2.0,17.0,43,0.00,,,0.00,Weather View 32 v70,2013-04-07 05:45:00,
2013-04-07 02:00:00,54.0,32.0,30.06,SSW,202,6.0,17.0,43,0.00,,,0.00,Weather View 32 v70,2013-04-07 06:00:00,
2013-04-07 02:15:00,53.0,32.2,30.06,SSE,157,1.0,17.0,45,0.00,,,0.00,Weather View 32 v70,2013-04-07 06:15:00,
2013-04-07 02:30:00,53.0,32.2,30.05,NE,45,0.0,17.0,45,0.00,,,0.00,Weather View 32 v70,2013-04-07 06:30:00,
2013-04-07 02:45:00,53.0,32.2,30.05,SE,135,4.0,13.0,45,0.00,,,0.00,Weather View 32 v70,2013-04-07 06:45:00,
2013-04-07 02:50:00,53.0,32.2,30.05,SE,135,4.0,13.0,45,0.00,,,0.00,Weather View 32 v70,2013-04-07 06:50:00,
2013-04-07 03:00:00,52.0,31.8,30.05,WSW,247,4.0,10.0,46,0.00,,,0.00,Weather View 32 v70,2013-04-07 07:00:00,
2013-04-07 03:15:00,52.0,32.4,30.04,SSE,157,2.0,10.0,47,0.00,,,0.00,Weather View 32 v70,2013-04-07 07:15:00,
2013-04-07 03:30:00,52.0,31.8,30.04,ESE,112,5.0,10.0,46,0.00,,,0.00,Weather View 32 v70,2013-04-07 07:30:00,
2013-04-07 03:45:00,52.0,32.4,30.04,NE,45,5.0,9.0,47,0.00,,,0.00,Weather View 32 v70,2013-04-07 07:45:00,
2013-04-07 03:50:00,52.0,32.4,30.04,NE,45,5.0,9.0,47,0.00,,,0.00,Weather View 32 v70,2013-04-07 07:50:00,
2013-04-07 04:00:00,52.0,31.8,30.04,ESE,112,3.0,10.0,46,0.00,,,0.00,Weather View 32 v70,2013-04-07 08:00:00,
2013-04-07 04:15:00,52.0,31.8,30.03,SW,225,4.0,12.0,46,0.00,,,0.00,Weather View 32 v70,2013-04-07 08:15:00,
2013-04-07 04:30:00,52.0,32.4,30.03,NE,45,7.0,12.0,47,0.00,,,0.00,Weather View 32 v70,2013-04-07 08:30:00,
2013-04-07 04:45:00,52.0,32.4,30.03,SSW,202,0.0,12.0,47,0.00,,,0.00,Weather View 32 v70,2013-04-07 08:45:00,
2013-04-07 04:51:00,52.0,32.4,30.03,SSW,202,0.0,12.0,47,0.00,,,0.00,Weather View 32 v70,2013-04-07 08:51:00,
2013-04-07 05:00:00,52.0,32.4,30.02,ESE,112,6.0,12.0,47,0.00,,,0.00,Weather View 32 v70,2013-04-07 09:00:00,
2013-04-07 05:15:00,52.0,32.4,30.02,NE,45,4.0,12.0,47,0.00,,,0.00,Weather View 32 v70,2013-04-07 09:15:00,
2013-04-07 05:30:00,52.0,32.9,30.02,NW,315,3.0,12.0,48,0.00,,,0.00,Weather View 32 v70,2013-04-07 09:30:00,
2013-04-07 05:45:00,52.0,32.4,30.02,SSE,157,4.0,13.0,47,0.00,,,0.00,Weather View 32 v70,2013-04-07 09:45:00,
2013-04-07 05:52:00,52.0,32.4,30.02,SSE,157,4.0,13.0,47,0.00,,,0.00,Weather View 32 v70,2013-04-07 09:52:00,
2013-04-07 06:00:00,52.0,32.9,30.02,NE,45,8.0,14.0,48,0.00,,,0.00,Weather View 32 v70,2013-04-07 10:00:00,
2013-04-07 06:15:00,52.0,32.9,30.03,SSE,157,2.0,14.0,48,0.00,,,0.00,Weather View 32 v70,2013-04-07 10:15:00,
2013-04-07 06:30:00,53.0,32.7,30.03,SSW,202,9.0,18.0,46,0.00,,,0.00,Weather View 32 v70,2013-04-07 10:30:00,
2013-04-07 06:45:00,53.0,32.2,30.03,SE,135,6.0,18.0,45,0.00,,,0.00,Weather View 32 v70,2013-04-07 10:45:00,
2013-04-07 06:52:00,53.0,32.2,30.03,SE,135,6.0,18.0,45,0.00,,,0.00,Weather View 32 v70,2013-04-07 10:52:00,
2013-04-07 07:00:00,54.0,32.5,30.03,SW,225,9.0,19.0,44,0.00,,,0.00,Weather View 32 v70,2013-04-07 11:00:00,
2013-04-07 07:15:00,54.0,32.0,30.03,SW,225,5.0,19.0,43,0.00,,,0.00,Weather View 32 v70,2013-04-07 11:15:00,
2013-04-07 07:30:00,55.0,32.9,30.03,NE,45,15.0,21.0,43,0.00,,,0.00,Weather View 32 v70,2013-04-07 11:30:00,
2013-04-07 07:45:00,55.0,32.9,30.04,SSW,202,7.0,21.0,43,0.00,,,0.00,Weather View 32 v70,2013-04-07 11:45:00,
2013-04-07 07:53:00,55.0,32.9,30.04,SSW,202,7.0,21.0,43,0.00,,,0.00,Weather View 32 v70,2013-04-07 11:53:00,
2013-04-07 08:00:00,55.0,33.4,30.04,WSW,247,3.0,21.0,44,0.00,,,0.00,Weather View 32 v70,2013-04-07 12:00:00,
2013-04-07 08:15:00,55.0,32.9,30.04,SSW,202,12.0,21.0,43,0.00,,,0.00,Weather View 32 v70,2013-04-07 12:15:00,
2013-04-07 08:30:00,56.0,33.2,30.04,SW,225,1.0,19.0,42,0.00,,,0.00,Weather View 32 v70,2013-04-07 12:30:00,
2013-04-07 08:45:00,57.0,33.5,30.04,SSW,202,7.0,20.0,41,0.00,,,0.00,Weather View 32 v70,2013-04-07 12:45:00,
2013-04-07 08:53:00,57.0,33.5,30.04,SSW,202,7.0,20.0,41,0.00,,,0.00,Weather View 32 v70,2013-04-07 12:53:00,
2013-04-07 09:00:00,59.0,34.0,30.04,South,180,9.0,20.0,39,0.00,,,0.00,Weather View 32 v70,2013-04-07 13:00:00,
2013-04-07 09:15:00,60.0,34.3,30.04,NE,45,4.0,20.0,38,0.00,,,0.00,Weather View 32 v70,2013-04-07 13:15:00,
2013-04-07 09:30:00,60.0,34.9,30.04,SE,135,1.0,20.0,39,0.00,,,0.00,Weather View 32 v70,2013-04-07 13:30:00,
2013-04-07 09:45:00,61.0,35.2,30.03,SE,135,2.0,17.0,38,0.00,,,0.00,Weather View 32 v70,2013-04-07 13:45:00,
2013-04-07 09:54:00,61.0,35.2,30.03,SE,135,2.0,17.0,38,0.00,,,0.00,Weather View 32 v70,2013-04-07 13:54:00,
2013-04-07 10:00:00,61.0,35.2,30.02,SSW,202,10.0,18.0,38,0.00,,,0.00,Weather View 32 v70,2013-04-07 14:00:00,
2013-04-07 10:15:00,61.0,35.8,30.03,North,360,4.0,18.0,39,0.00,,,0.00,Weather View 32 v70,2013-04-07 14:15:00,
2013-04-07 10:30:00,62.0,36.7,30.03,West,270,4.0,18.0,39,0.00,,,0.00,Weather View 32 v70,2013-04-07 14:30:00,
2013-04-07 10:45:00,62.0,36.0,30.03,SSW,202,6.0,18.0,38,0.00,,,0.00,Weather View 32 v70,2013-04-07 14:45:00,
2013-04-07 10:54:00,62.0,36.0,30.03,SSW,202,6.0,18.0,38,0.00,,,0.00,Weather View 32 v70,2013-04-07 14:54:00,
2013-04-07 11:00:00,64.0,36.4,30.03,ENE,67,5.0,15.0,36,0.00,,,0.00,Weather View 32 v70,2013-04-07 15:00:00,
2013-04-07 11:15:00,65.0,36.6,30.03,West,270,7.0,17.0,35,0.00,,,0.00,Weather View 32 v70,2013-04-07 15:15:00,
2013-04-07 11:30:00,66.0,37.5,30.03,SSW,202,1.0,17.0,35,0.00,,,0.00,Weather View 32 v70,2013-04-07 15:30:00,
2013-04-07 11:45:00,66.0,36.8,30.04,SW,225,7.0,17.0,34,0.00,,,0.00,Weather View 32 v70,2013-04-07 15:45:00,
2013-04-07 12:00:00,67.0,36.9,30.02,NNW,337,3.0,17.0,33,0.00,,,0.00,Weather View 32 v70,2013-04-07 16:00:00,
2013-04-07 12:15:00,68.0,37.8,30.02,SW,225,4.0,16.0,33,0.00,,,0.00,Weather View 32 v70,2013-04-07 16:15:00,
2013-04-07 12:30:00,68.0,37.8,30.02,South,180,3.0,17.0,33,0.00,,,0.00,Weather View 32 v70,2013-04-07 16:30:00,
2013-04-07 12:45:00,69.0,37.8,30.02,South,180,6.0,17.0,32,0.00,,,0.00,Weather View 32 v70,2013-04-07 16:45:00,
2013-04-07 13:00:00,69.0,37.8,30.00,NE,45,10.0,19.0,32,0.00,,,0.00,Weather View 32 v70,2013-04-07 17:00:00,
2013-04-07 13:15:00,69.0,38.6,30.01,NE,45,8.0,19.0,33,0.00,,,0.00,Weather View 32 v70,2013-04-07 17:15:00,
2013-04-07 13:30:00,70.0,38.7,29.99,SW,225,7.0,19.0,32,0.00,,,0.00,Weather View 32 v70,2013-04-07 17:30:00,
2013-04-07 13:45:00,70.0,37.9,29.99,SSE,157,5.0,19.0,31,0.00,,,0.00,Weather View 32 v70,2013-04-07 17:45:00,
2013-04-07 14:00:00,71.0,38.8,29.98,East,90,0.0,13.0,31,0.00,,,0.00,Weather View 32 v70,2013-04-07 18:00:00,
2013-04-07 14:15:00,71.0,38.8,29.97,SW,225,1.0,15.0,31,0.00,,,0.00,Weather View 32 v70,2013-04-07 18:15:00,
2013-04-07 14:30:00,73.0,38.8,29.96,West,270,2.0,15.0,29,0.00,,,0.00,Weather View 32 v70,2013-04-07 18:30:00,
2013-04-07 14:45:00,71.0,37.9,29.96,SSW,202,2.0,17.0,30,0.00,,,0.00,Weather View 32 v70,2013-04-07 18:45:00,
2013-04-07 15:00:00,71.0,39.6,29.96,SW,225,1.0,17.0,32,0.00,,,0.00,Weather View 32 v70,2013-04-07 19:00:00,
2013-04-07 15:15:00,70.0,37.9,29.96,West,270,2.0,17.0,31,0.00,,,0.00,Weather View 32 v70,2013-04-07 19:15:00,
2013-04-07 15:30:00,70.0,38.7,29.96,NE,45,7.0,17.0,32,0.00,,,0.00,Weather View 32 v70,2013-04-07 19:30:00,
2013-04-07 15:45:00,70.0,38.7,29.95,SSW,202,9.0,16.0,32,0.00,,,0.00,Weather View 32 v70,2013-04-07 19:45:00,
2013-04-07 16:00:00,70.0,38.7,29.94,SW,225,2.0,16.0,32,0.00,,,0.00,Weather View 32 v70,2013-04-07 20:00:00,
2013-04-07 16:15:00,72.0,38.8,29.95,South,180,3.0,16.0,30,0.00,,,0.00,Weather View 32 v70,2013-04-07 20:15:00,
2013-04-07 16:30:00,72.0,37.9,29.94,WSW,247,3.0,16.0,29,0.00,,,0.00,Weather View 32 v70,2013-04-07 20:30:00,
2013-04-07 16:45:00,71.0,37.9,29.95,WSW,247,7.0,15.0,30,0.00,,,0.00,Weather View 32 v70,2013-04-07 20:45:00,
2013-04-07 17:00:00,71.0,38.8,29.94,SSW,202,5.0,15.0,31,0.00,,,0.00,Weather View 32 v70,2013-04-07 21:00:00,
2013-04-07 17:15:00,71.0,37.9,29.95,SSW,202,7.0,15.0,30,0.00,,,0.00,Weather View 32 v70,2013-04-07 21:15:00,
2013-04-07 17:30:00,72.0,37.9,29.94,SW,225,5.0,13.0,29,0.00,,,0.00,Weather View 32 v70,2013-04-07 21:30:00,
2013-04-07 17:45:00,70.0,37.9,29.96,SSW,202,1.0,12.0,31,0.00,,,0.00,Weather View 32 v70,2013-04-07 21:45:00,
2013-04-07 18:00:00,69.0,37.8,29.96,SSW,202,1.0,12.0,32,0.00,,,0.00,Weather View 32 v70,2013-04-07 22:00:00,
2013-04-07 18:15:00,69.0,37.8,29.96,South,180,5.0,12.0,32,0.00,,,0.00,Weather View 32 v70,2013-04-07 22:15:00,
2013-04-07 18:30:00,70.0,38.7,29.96,WSW,247,3.0,12.0,32,0.00,,,0.00,Weather View 32 v70,2013-04-07 22:30:00,
2013-04-07 18:45:00,68.0,37.8,29.97,NE,45,9.0,12.0,33,0.00,,,0.00,Weather View 32 v70,2013-04-07 22:45:00,
2013-04-07 19:00:00,68.0,38.5,29.97,NE,45,4.0,12.0,34,0.00,,,0.00,Weather View 32 v70,2013-04-07 23:00:00,
2013-04-07 19:15:00,67.0,39.1,29.97,SW,225,0.0,15.0,36,0.00,,,0.00,Weather View 32 v70,2013-04-07 23:15:00,
2013-04-07 19:30:00,66.0,38.2,29.97,NE,45,5.0,15.0,36,0.00,,,0.00,Weather View 32 v70,2013-04-07 23:30:00,
2013-04-07 19:45:00,66.0,38.9,29.98,SSW,202,5.0,15.0,37,0.00,,,0.00,Weather View 32 v70,2013-04-07 23:45:00,
2013-04-07 20:00:00,65.0,38.7,29.98,SSW,202,5.0,15.0,38,0.00,,,0.00,Weather View 32 v70,2013-04-08 00:00:00,
2013-04-07 20:15:00,64.0,38.5,29.98,SW,225,2.0,9.0,39,0.00,,,0.00,Weather View 32 v70,2013-04-08 00:15:00,
2013-04-07 20:30:00,63.0,37.6,29.98,SW,225,2.0,7.0,39,0.00,,,0.00,Weather View 32 v70,2013-04-08 00:30:00,
2013-04-07 20:45:00,63.0,38.2,29.99,SW,225,0.0,6.0,40,0.00,,,0.00,Weather View 32 v70,2013-04-08 00:45:00,
2013-04-07 21:00:00,63.0,37.6,29.99,SSW,202,4.0,6.0,39,0.00,,,0.00,Weather View 32 v70,2013-04-08 01:00:00,
2013-04-07 21:15:00,63.0,37.6,30.00,South,180,6.0,9.0,39,0.00,,,0.00,Weather View 32 v70,2013-04-08 01:15:00,
2013-04-07 21:30:00,63.0,38.2,30.00,SSW,202,0.0,9.0,40,0.00,,,0.00,Weather View 32 v70,2013-04-08 01:30:00,
2013-04-07 21:45:00,63.0,37.6,30.00,SSW,202,6.0,10.0,39,0.00,,,0.00,Weather View 32 v70,2013-04-08 01:45:00,
2013-04-07 22:00:00,64.0,37.8,30.00,SSW,202,7.0,13.0,38,0.00,,,0.00,Weather View 32 v70,2013-04-08 02:00:00,
2013-04-07 22:15:00,64.0,37.8,30.00,NE,45,12.0,13.0,38,0.00,,,0.00,Weather View 32 v70,2013-04-08 02:15:00,
2013-04-07 22:30:00,63.0,37.6,30.00,SSW,202,2.0,13.0,39,0.00,,,0.00,Weather View 32 v70,2013-04-08 02:30:00,
2013-04-07 22:45:00,63.0,37.6,30.00,SW,225,6.0,13.0,39,0.00,,,0.00,Weather View 32 v70,2013-04-08 02:45:00,
2013-04-07 23:01:00,63.0,37.6,30.00,SSW,202,8.0,12.0,39,0.00,,,0.00,Weather View 32 v70,2013-04-08 03:01:00,
2013-04-07 23:15:00,63.0,37.6,30.00,SSW,202,8.0,12.0,39,0.00,,,0.00,Weather View 32 v70,2013-04-08 03:15:00,
2013-04-07 23:30:00,63.0,37.6,30.00,SSW,202,10.0,12.0,39,0.00,,,0.00,Weather View 32 v70,2013-04-08 03:30:00,
2013-04-07 23:45:00,63.0,36.9,30.00,SSW,202,6.0,13.0,38,0.00,,,0.00,Weather View 32 v70,2013-04-08 03:45:00,